Regional Weather Roundup
Issued by NWS Newport/Morehead, NC

Current Version | Previous Version | Graphics & Text | Print | Product List | Glossary Off
Versions: 1 2 3 4 5 6 7 8 9 10 11 12 13 14 15 16 17 18 19 20 21 22 23 24 25 26 27 28 29 30 31 32 33 34 35 36 37 38 39 40 41 42 43 44 45 46 47 48 49 50

000
ASUS42 KMHX 220522
RWRMHX
WEATHER ROUNDUP FOR EASTERN NORTH CAROLINA
NATIONAL WEATHER SERVICE NEWPORT/MOREHEAD CITY NC
100 AM EDT TUE JUL 22 2014

NOTE: "FAIR" INDICATES FEW OR NO CLOUDS BELOW 12,000 FEET
WITH NO SIGNIFICANT WEATHER AND/OR OBSTRUCTIONS TO VISIBILITY

NCZ015>017-031-032-045>047-102-103-220600-
NORTH COAST

CITY           SKY/WX    TMP DP  RH WIND       PRES   REMARKS
EDENTON        CLOUDY    72  71  97 NE3       30.15F
ELIZABETH CITY CLOUDY    74  71  91 NE6       30.16F
KITTY HAWK     MOCLDY    75  73  93 E3        30.15S
MANTEO         NOT AVBL

$$

NCZ045>047-081-094-103-104-220600-
CENTRAL COAST

CITY           SKY/WX    TMP DP  RH WIND       PRES   REMARKS
FRISCO         MOCLDY    76  74  93 E6        30.14F
SWANQUARTER      N/A     75 N/A N/A NE3       30.09F

$$

NCZ095-097-098-100-101-220600-
SOUTHERN COAST

CITY           SKY/WX    TMP DP  RH WIND       PRES   REMARKS
BEAUFORT       MOCLDY    75  73  93 NW3       30.12F
CEDAR ISLAND     N/A     77 N/A N/A E8        30.15S
JACKSONVILLE   MOCLDY    75  74  96 NE3       30.13S
NEWPORT        NOT AVBL
PINEY ISLAND   CLOUDY    78  77  96 E7        30.12F
WILMINGTON     RAIN      75  73  93 NE5       30.11F FOG


$$

NCZ011>013-027>030-043-044-078>080-089-090>093-098-220600-
COASTAL PLAIN

CITY           SKY/WX    TMP DP  RH WIND       PRES   REMARKS
AHOSKIE        MOCLDY    70  68  93 N3        30.17S
CLINTON        CLOUDY    73  73 100 CALM      30.14F FOG
ELIZABETHTOWN  CLOUDY    72  72 100 CALM      30.13F FOG
GOLDSBORO      CLOUDY    74  74  99 NE7       30.13F
GREENVILLE     CLOUDY    72  72 100 NE5       30.16F
HAVELOCK       CLOUDY    76  73  91 CALM      30.14S
KENANSVILLE    CLOUDY    73  72  96 CALM      30.15S FOG
KINSTON        CLOUDY    74  73  95 E3        30.15S
NEW BERN       MOCLDY    75  73  94 N3        30.14F
RICHLANDS      CLOUDY    73  72  94 NE6       30.14S
ROANOKE RAPIDS NOT AVBL
ROCKY MOUNT    CLOUDY    73  70  90 CALM      30.16F
WASHINGTON     CLOUDY    73  69  88 E3        30.15F
WHITEVILLE     CLOUDY    72  71  96 CALM      30.12S FOG

$$

AMZ130-135-150-152-154-156-158-170-250-252-270-ANZ085-086-088-633-658-670-220600-
MARINE OBSERVATIONS

STATION/POSITION TIME  TEMP    WIND        PRES    WAVE   SWELL
                       AIR SEA DIR/SP/G            HT/PER HT/PER
                 (UTC) (F)     (DEG/KT/KT) (MB)    (FT/S) (FT/S)
CHESAPEAKE LIGHT NOT AVBL
BUOY 44014       0500   76 77  110/  6/  8 1021.1    3/ 7   3/ 7
DUCK             0500   75 76   80/  6/  7 1020.6
2E DUCK          0400                        N/A     2/ 7
OREGON INLET     0500   76 78   60/  6/  8 1021.0
BUOY 44095       0500      77                N/A     3/ 7
20E OREGON INLET NOT AVBL
HATTERAS CG      0500   77 81   80/  4/  5 1020.8
DIAMOND BUOY     0500          VRB  6/  8  1020.4    3/ 8   3/ 8
CAPE LOOKOUT     0500   79     210/  3/  4 1019.5
BEAUFORT LAB     0500   75 80  350/  3/  5 1019.4
30 SE NEW RIVER  0500   80 80  190/ 12/ 14 1019.9    3/ 7   2/ 7
5 SE WRIGHTSVILL 0500   77 81  170/ 10/ 12   N/A
BUOY 41002       0423   81 82  180/ 12/ 14 1021.9    4/ 7   3/ 7
BUOY 41004       0500   81 82  160/  8/ 10 1018.1    3/ 8   2/ 8

$$


USA.gov is the U.S. government's official web portal to all federal, state and local government web resources and services.